THA934 VTBS-EBBR

Flight info

Callsign THA934
Flight time N/A
Altitude 32000
Route TARED1G TARED P646 JJS B209 KKJ L333 KABEL/N0503F340 L333 MERUN L750 RANAH B449 MAMED B450 BIBIM A909 RODAR N644 LESGI/N0490F360 N644 TETRO M10 SARPI UM10 GOKPA UL746 ODERO L746 LUGEB DCT IDARU DCT ALOXU DCT BUXLE DCT BUDOP DCT ABETI/N0487F380 DCT RENKA DCT KEMES DCT TEKTU DCT TESGA DCT UMUPU T880 BATTY
Aircraft B77W/H-SDE1E2E3FGHIJ2J3J4J5M1RWXY/LB1D1

Departure

Time N/A
Airport Suvarnabhumi Airport (VTBS)

Arrival

Time 2026-05-07 18:48
Airport Brussels Airport (EBBR)
Time Latitude Longitude Altitude Speed Heading
2026-05-07 17:00 46.47510 22.15960 36024 ft 462 kts 290°
2026-05-07 17:01 46.49785 22.08947 36019 ft 463 kts 291°
2026-05-07 17:01 46.52518 22.00593 36015 ft 463 kts 291°
2026-05-07 17:02 46.55258 21.92136 36013 ft 462 kts 291°
2026-05-07 17:02 46.57973 21.83686 36022 ft 462 kts 291°
2026-05-07 17:03 46.60687 21.75207 36007 ft 462 kts 291°
2026-05-07 17:03 46.63391 21.66734 36008 ft 462 kts 291°
2026-05-07 17:04 46.66091 21.58248 36009 ft 461 kts 291°
2026-05-07 17:04 46.68764 21.49762 36015 ft 461 kts 289°
2026-05-07 17:05 46.70980 21.41034 36009 ft 459 kts 285°
2026-05-07 17:05 46.73071 21.32299 36005 ft 459 kts 285°
2026-05-07 17:06 46.75175 21.23519 36012 ft 459 kts 285°
2026-05-07 17:06 46.77294 21.14711 36013 ft 460 kts 285°
2026-05-07 17:07 46.79413 21.05897 36006 ft 460 kts 285°
2026-05-07 17:07 46.81527 20.97074 36008 ft 460 kts 285°
2026-05-07 17:08 46.83634 20.88242 36008 ft 460 kts 285°
2026-05-07 17:08 46.85736 20.79394 36030 ft 460 kts 285°
2026-05-07 17:09 46.87815 20.70608 36016 ft 460 kts 285°
2026-05-07 17:09 46.89900 20.61763 36010 ft 459 kts 285°
2026-05-07 17:10 46.91971 20.52938 36008 ft 458 kts 285°
2026-05-07 17:10 46.94033 20.44116 36008 ft 458 kts 284°
2026-05-07 17:11 46.96088 20.35286 36008 ft 458 kts 284°
2026-05-07 17:11 46.98127 20.26491 36009 ft 457 kts 284°
2026-05-07 17:12 47.00164 20.17666 36005 ft 457 kts 284°
2026-05-07 17:12 47.02195 20.08838 36003 ft 458 kts 284°
2026-05-07 17:13 47.04204 20.00062 36009 ft 458 kts 284°
2026-05-07 17:13 47.06221 19.91220 36000 ft 457 kts 284°
2026-05-07 17:14 47.08233 19.82363 35995 ft 457 kts 284°
2026-05-07 17:14 47.10230 19.73534 35999 ft 456 kts 284°
2026-05-07 17:15 47.12223 19.64689 35998 ft 456 kts 283°
2026-05-07 17:15 47.14209 19.55835 35997 ft 456 kts 283°
2026-05-07 17:16 47.16175 19.47031 35994 ft 456 kts 283°
2026-05-07 17:16 47.18137 19.38213 35993 ft 456 kts 283°
2026-05-07 17:17 47.20099 19.29357 36005 ft 456 kts 283°
2026-05-07 17:17 47.22057 19.20477 35996 ft 456 kts 283°
2026-05-07 17:18 47.24006 19.11607 35992 ft 456 kts 283°
2026-05-07 17:18 47.25950 19.02717 35992 ft 456 kts 283°
2026-05-07 17:19 47.27872 18.93895 36019 ft 455 kts 283°
2026-05-07 17:19 47.29794 18.85029 35998 ft 455 kts 283°
2026-05-07 17:20 47.31712 18.76145 35987 ft 455 kts 283°
2026-05-07 17:20 47.33621 18.67267 35986 ft 454 kts 282°
2026-05-07 17:21 47.35522 18.58390 35989 ft 454 kts 282°
2026-05-07 17:21 47.37416 18.49499 35993 ft 455 kts 282°
2026-05-07 17:22 47.39297 18.40634 35982 ft 455 kts 282°
2026-05-07 17:22 47.41183 18.31712 35984 ft 455 kts 282°
2026-05-07 17:23 47.43063 18.22775 35980 ft 456 kts 282°
2026-05-07 17:23 47.44939 18.13818 35981 ft 457 kts 282°
2026-05-07 17:24 47.46815 18.04821 35981 ft 458 kts 282°
2026-05-07 17:24 47.48683 17.95819 35972 ft 459 kts 282°
2026-05-07 17:25 47.50550 17.86788 35972 ft 459 kts 282°
2026-05-07 17:25 47.52411 17.77739 35991 ft 460 kts 282°
2026-05-07 17:26 47.54253 17.68746 35973 ft 460 kts 282°
2026-05-07 17:26 47.56105 17.59662 35969 ft 460 kts 282°
2026-05-07 17:27 47.57947 17.50586 35966 ft 460 kts 282°
2026-05-07 17:27 47.59784 17.41494 35999 ft 459 kts 282°
2026-05-07 17:28 47.61609 17.32415 35975 ft 459 kts 282°
2026-05-07 17:28 47.63415 17.23390 35963 ft 459 kts 281°
2026-05-07 17:29 47.65224 17.14310 35982 ft 459 kts 281°
2026-05-07 17:29 47.67025 17.05234 35980 ft 458 kts 281°
2026-05-07 17:30 47.69129 16.96258 36077 ft 465 kts 288°
2026-05-07 17:30 47.70368 16.91822 36351 ft 465 kts 288°
2026-05-07 17:30 47.71614 16.87402 36700 ft 463 kts 288°
2026-05-07 17:31 47.72854 16.82998 37052 ft 461 kts 288°
2026-05-07 17:31 47.74083 16.78603 37368 ft 460 kts 288°
2026-05-07 17:31 47.75303 16.74208 37637 ft 460 kts 288°
2026-05-07 17:31 47.76521 16.69797 37879 ft 460 kts 288°
2026-05-07 17:32 47.78947 16.60955 37985 ft 463 kts 288°
2026-05-07 17:32 47.80961 16.53589 37980 ft 461 kts 288°
2026-05-07 17:33 47.83751 16.43348 37993 ft 458 kts 288°
2026-05-07 17:33 47.86132 16.34569 37994 ft 457 kts 288°
2026-05-07 17:34 47.88501 16.25804 38026 ft 456 kts 288°
2026-05-07 17:34 47.90766 16.17392 38005 ft 457 kts 288°
2026-05-07 17:35 47.93117 16.08629 38004 ft 458 kts 288°
2026-05-07 17:35 47.95479 15.99794 37999 ft 459 kts 288°
2026-05-07 17:36 47.97839 15.90933 38006 ft 460 kts 288°
2026-05-07 17:36 48.00193 15.82063 38003 ft 463 kts 288°
2026-05-07 17:37 48.02562 15.73097 38005 ft 464 kts 288°
2026-05-07 17:37 48.04912 15.64171 37997 ft 464 kts 288°
2026-05-07 17:38 48.07267 15.55192 38003 ft 464 kts 288°
2026-05-07 17:38 48.09620 15.46190 38007 ft 464 kts 288°
2026-05-07 17:39 48.11963 15.37184 37998 ft 464 kts 288°
2026-05-07 17:39 48.14295 15.28187 38008 ft 463 kts 288°
2026-05-07 17:40 48.16607 15.19233 38006 ft 463 kts 288°
2026-05-07 17:40 48.18924 15.10226 38020 ft 463 kts 288°
2026-05-07 17:41 48.21235 15.01203 38019 ft 463 kts 288°
2026-05-07 17:41 48.23528 14.92212 38012 ft 464 kts 288°
2026-05-07 17:42 48.25832 14.83148 38012 ft 464 kts 288°
2026-05-07 17:42 48.28130 14.74072 38016 ft 465 kts 287°
2026-05-07 17:43 48.30406 14.65044 38030 ft 465 kts 288°
2026-05-07 17:43 48.32684 14.55973 38020 ft 465 kts 288°
2026-05-07 17:44 48.34959 14.46878 38020 ft 465 kts 288°
2026-05-07 17:44 48.37235 14.37739 38020 ft 465 kts 287°
2026-05-07 17:45 48.39487 14.28665 38031 ft 465 kts 288°
2026-05-07 17:45 48.41746 14.19518 38036 ft 466 kts 288°
2026-05-07 17:46 48.43999 14.10364 38024 ft 466 kts 288°
2026-05-07 17:46 48.46247 14.01186 38026 ft 467 kts 288°
2026-05-07 17:47 48.48480 13.92038 38044 ft 467 kts 288°
2026-05-07 17:47 48.50718 13.82828 38032 ft 468 kts 288°
2026-05-07 17:48 48.52951 13.73600 38030 ft 468 kts 288°
2026-05-07 17:48 48.55181 13.64351 38032 ft 468 kts 288°
2026-05-07 17:49 48.57380 13.55215 38031 ft 468 kts 289°
2026-05-07 17:49 48.60216 13.46420 38036 ft 471 kts 299°
2026-05-07 17:50 48.63848 13.38144 38039 ft 472 kts 301°
2026-05-07 17:50 48.67478 13.30005 38038 ft 471 kts 301°
2026-05-07 17:51 48.71066 13.21870 38040 ft 471 kts 301°
2026-05-07 17:51 48.74680 13.13587 38057 ft 475 kts 301°
2026-05-07 17:52 48.78317 13.05216 38056 ft 476 kts 301°
2026-05-07 17:52 48.81960 12.96807 38046 ft 476 kts 301°
2026-05-07 17:53 48.84981 12.89814 38041 ft 475 kts 301°
2026-05-07 17:53 48.88596 12.81427 38041 ft 474 kts 301°
2026-05-07 17:54 48.92196 12.73044 38041 ft 472 kts 301°
2026-05-07 17:54 48.95783 12.64666 38047 ft 471 kts 301°
2026-05-07 17:55 48.99348 12.56312 38051 ft 470 kts 300°
2026-05-07 17:55 49.02884 12.48002 38048 ft 470 kts 300°
2026-05-07 17:56 49.06431 12.39640 38059 ft 470 kts 300°
2026-05-07 17:56 49.09978 12.31251 38061 ft 470 kts 300°
2026-05-07 17:57 49.13525 12.22833 38055 ft 471 kts 300°
2026-05-07 17:57 49.17058 12.14427 38046 ft 472 kts 300°
2026-05-07 17:58 49.20602 12.05965 38038 ft 472 kts 300°
2026-05-07 17:58 49.24134 11.97505 38041 ft 472 kts 300°
2026-05-07 17:59 49.27635 11.89091 38055 ft 472 kts 300°
2026-05-07 17:59 49.31157 11.80603 38059 ft 473 kts 300°
2026-05-07 18:00 49.34680 11.72085 38059 ft 473 kts 300°
2026-05-07 18:00 49.38168 11.63624 38064 ft 472 kts 300°
2026-05-07 18:01 49.41672 11.55093 38041 ft 472 kts 300°
2026-05-07 18:01 49.45172 11.46549 38051 ft 472 kts 300°
2026-05-07 18:02 49.50373 11.33798 38039 ft 472 kts 300°
2026-05-07 18:03 49.53857 11.25226 38056 ft 472 kts 300°
2026-05-07 18:03 49.57292 11.16671 38049 ft 472 kts 299°
2026-05-07 18:04 49.60680 11.08043 38051 ft 472 kts 299°
2026-05-07 18:04 49.64057 10.99400 38047 ft 472 kts 299°
2026-05-07 18:05 49.67450 10.90711 38049 ft 472 kts 299°
2026-05-07 18:05 49.70840 10.82013 38059 ft 472 kts 299°
2026-05-07 18:06 49.74223 10.73305 38048 ft 473 kts 299°
2026-05-07 18:06 49.77586 10.64621 38056 ft 473 kts 299°
2026-05-07 18:07 49.80967 10.55859 38052 ft 473 kts 299°
2026-05-07 18:07 49.84333 10.47109 38053 ft 473 kts 299°
2026-05-07 18:08 49.87698 10.38329 38058 ft 473 kts 299°
2026-05-07 18:08 49.91055 10.29543 38053 ft 473 kts 299°
2026-05-07 18:09 49.94382 10.20806 38060 ft 472 kts 299°
2026-05-07 18:09 49.97723 10.12001 38056 ft 472 kts 298°
2026-05-07 18:10 50.01050 10.03203 38060 ft 472 kts 298°
2026-05-07 18:10 50.04354 9.94439 38057 ft 472 kts 298°
2026-05-07 18:11 50.07642 9.85686 38056 ft 472 kts 298°
2026-05-07 18:11 50.10897 9.76991 38052 ft 472 kts 298°
2026-05-07 18:12 50.14200 9.68140 38060 ft 471 kts 298°
2026-05-07 18:12 50.17494 9.59281 38054 ft 472 kts 298°
2026-05-07 18:13 50.20758 9.50471 38061 ft 472 kts 298°
2026-05-07 18:13 50.24035 9.41599 38053 ft 472 kts 298°
2026-05-07 18:14 50.27307 9.32709 38051 ft 472 kts 298°
2026-05-07 18:14 50.30525 9.23937 38061 ft 472 kts 298°
2026-05-07 18:15 50.33702 9.15013 38055 ft 471 kts 294°
2026-05-07 18:15 50.36015 9.05461 38066 ft 469 kts 285°
2026-05-07 18:16 50.37896 8.95666 38062 ft 469 kts 285°
2026-05-07 18:16 50.39783 8.85961 38060 ft 469 kts 286°
2026-05-07 18:17 50.41676 8.76341 38061 ft 469 kts 286°
2026-05-07 18:17 50.43587 8.66598 38063 ft 469 kts 286°
2026-05-07 18:18 50.45135 8.56651 37398 ft 473 kts 278°
2026-05-07 18:18 50.45647 8.51565 36547 ft 474 kts 278°
2026-05-07 18:18 50.46128 8.46447 35757 ft 473 kts 278°
2026-05-07 18:18 50.46585 8.41524 35028 ft 472 kts 278°
2026-05-07 18:19 50.47065 8.36425 34476 ft 467 kts 278°
2026-05-07 18:19 50.47536 8.31514 34280 ft 454 kts 279°
2026-05-07 18:19 50.48006 8.26678 34089 ft 443 kts 279°
2026-05-07 18:19 50.48466 8.21969 34057 ft 430 kts 279°
2026-05-07 18:20 50.48919 8.17329 33911 ft 431 kts 279°
2026-05-07 18:20 50.49380 8.12599 33152 ft 444 kts 279°
2026-05-07 18:20 50.49849 8.07773 32401 ft 456 kts 279°
2026-05-07 18:20 50.50330 8.02780 31742 ft 465 kts 279°
2026-05-07 18:21 50.50810 7.97771 31164 ft 471 kts 279°
2026-05-07 18:21 50.51297 7.92661 30673 ft 474 kts 279°
2026-05-07 18:21 50.51783 7.87541 30338 ft 473 kts 278°
2026-05-07 18:21 50.52261 7.82468 30110 ft 469 kts 278°
2026-05-07 18:22 50.52738 7.77385 29556 ft 468 kts 278°
2026-05-07 18:22 50.53051 7.74049 29176 ft 465 kts 278°
2026-05-07 18:22 50.53674 7.67366 28432 ft 458 kts 278°
2026-05-07 18:22 50.54127 7.62475 28391 ft 447 kts 278°
2026-05-07 18:23 50.54560 7.57773 28355 ft 450 kts 278°
2026-05-07 18:23 50.55009 7.52894 28015 ft 450 kts 278°
2026-05-07 18:23 50.55446 7.48105 27317 ft 448 kts 278°
2026-05-07 18:23 50.55860 7.43255 26616 ft 445 kts 275°
2026-05-07 18:24 50.56009 7.38421 25977 ft 439 kts 270°
2026-05-07 18:24 50.56014 7.33658 25368 ft 434 kts 270°
2026-05-07 18:24 50.56024 7.28932 24756 ft 430 kts 270°
2026-05-07 18:24 50.56050 7.24245 24147 ft 427 kts 270°
2026-05-07 18:25 50.56083 7.19594 23533 ft 423 kts 270°
2026-05-07 18:25 50.56150 7.14971 22839 ft 420 kts 273°
2026-05-07 18:25 50.56503 7.10488 22288 ft 416 kts 280°
2026-05-07 18:25 50.57200 7.06038 22113 ft 422 kts 284°
2026-05-07 18:26 50.57965 7.01641 22054 ft 419 kts 284°
2026-05-07 18:26 50.58715 6.97221 22053 ft 416 kts 284°
2026-05-07 18:26 50.59454 6.92813 22054 ft 416 kts 284°
2026-05-07 18:26 50.60189 6.88388 22058 ft 418 kts 284°
2026-05-07 18:27 50.60921 6.83961 22052 ft 419 kts 284°
2026-05-07 18:27 50.61651 6.79534 21888 ft 416 kts 284°
2026-05-07 18:27 50.62367 6.75182 21543 ft 413 kts 284°
2026-05-07 18:27 50.62852 6.72224 21356 ft 412 kts 284°
2026-05-07 18:28 50.63796 6.66454 20983 ft 411 kts 284°
2026-05-07 18:28 50.64506 6.62100 20703 ft 410 kts 283°
2026-05-07 18:28 50.65215 6.57746 20422 ft 409 kts 283°
2026-05-07 18:28 50.65906 6.53489 20159 ft 408 kts 284°
2026-05-07 18:29 50.66611 6.49136 19901 ft 407 kts 283°
2026-05-07 18:29 50.67301 6.44861 19609 ft 397 kts 283°
2026-05-07 18:29 50.67973 6.40695 19391 ft 385 kts 283°
2026-05-07 18:29 50.68622 6.36658 19181 ft 374 kts 283°
2026-05-07 18:30 50.69243 6.32787 18975 ft 364 kts 283°
2026-05-07 18:30 50.69854 6.28970 18770 ft 356 kts 283°
2026-05-07 18:30 50.70459 6.25175 18585 ft 357 kts 283°
2026-05-07 18:30 50.71061 6.21387 18394 ft 356 kts 283°
2026-05-07 18:31 50.71662 6.17604 18185 ft 354 kts 283°
2026-05-07 18:31 50.72260 6.13829 17933 ft 354 kts 283°
2026-05-07 18:31 50.72858 6.10045 17525 ft 353 kts 283°
2026-05-07 18:31 50.73444 6.06333 17063 ft 345 kts 283°
2026-05-07 18:32 50.74022 6.02665 16599 ft 345 kts 283°
2026-05-07 18:32 50.74604 5.98954 16161 ft 350 kts 283°
2026-05-07 18:32 50.75183 5.95257 15710 ft 351 kts 283°
2026-05-07 18:32 50.75758 5.91582 15241 ft 338 kts 283°
2026-05-07 18:33 50.76313 5.88029 14780 ft 329 kts 283°
2026-05-07 18:33 50.76860 5.84517 14353 ft 330 kts 283°
2026-05-07 18:33 50.77408 5.80986 13937 ft 333 kts 283°
2026-05-07 18:33 50.77963 5.77400 13458 ft 334 kts 283°
2026-05-07 18:34 50.78511 5.73850 12983 ft 331 kts 283°
2026-05-07 18:34 50.79057 5.70314 12504 ft 329 kts 283°
2026-05-07 18:34 50.79595 5.66815 12044 ft 323 kts 283°
2026-05-07 18:34 50.80110 5.63470 11567 ft 311 kts 283°
2026-05-07 18:35 50.80611 5.60204 11108 ft 299 kts 283°
2026-05-07 18:35 50.81094 5.57056 10646 ft 289 kts 283°
2026-05-07 18:35 50.81560 5.54004 10192 ft 282 kts 283°
2026-05-07 18:35 50.82016 5.51008 9739 ft 279 kts 283°
2026-05-07 18:36 50.82465 5.48057 9273 ft 278 kts 283°
2026-05-07 18:36 50.82917 5.45073 8764 ft 276 kts 283°
2026-05-07 18:36 50.83360 5.42153 8312 ft 270 kts 283°
2026-05-07 18:36 50.83749 5.39584 7889 ft 264 kts 283°
2026-05-07 18:37 50.84171 5.36789 7416 ft 257 kts 283°
2026-05-07 18:37 50.84580 5.34076 6936 ft 247 kts 283°
2026-05-07 18:37 50.84971 5.31480 6476 ft 239 kts 283°
2026-05-07 18:37 50.85356 5.28915 6162 ft 242 kts 283°
2026-05-07 18:38 50.85615 5.27191 6101 ft 243 kts 283°
2026-05-07 18:38 50.86018 5.24611 6075 ft 238 kts 289°
2026-05-07 18:38 50.86864 5.22394 6081 ft 236 kts 312°
2026-05-07 18:38 50.87998 5.20451 6092 ft 242 kts 313°
2026-05-07 18:39 50.89145 5.18476 6087 ft 242 kts 312°
2026-05-07 18:39 50.90279 5.16522 6071 ft 240 kts 313°
2026-05-07 18:39 50.91406 5.14578 6068 ft 239 kts 313°
2026-05-07 18:39 50.92527 5.12644 6069 ft 237 kts 313°
2026-05-07 18:40 50.93638 5.10722 6071 ft 235 kts 311°
2026-05-07 18:40 50.94495 5.08541 5993 ft 238 kts 293°
2026-05-07 18:40 50.95138 5.06126 5715 ft 241 kts 292°
2026-05-07 18:40 50.95790 5.03655 5426 ft 240 kts 292°
2026-05-07 18:41 50.96426 5.01226 5155 ft 238 kts 292°
2026-05-07 18:41 50.97057 4.98795 4843 ft 238 kts 292°
2026-05-07 18:41 50.97684 4.96365 4541 ft 237 kts 292°
2026-05-07 18:41 50.98305 4.93950 4260 ft 235 kts 291°
2026-05-07 18:42 50.98566 4.91450 3991 ft 231 kts 261°
2026-05-07 18:42 50.98199 4.88950 3998 ft 239 kts 255°
2026-05-07 18:42 50.97728 4.86456 3989 ft 232 kts 251°
2026-05-07 18:42 50.97212 4.84117 3974 ft 217 kts 250°
2026-05-07 18:43 50.96778 4.82227 3998 ft 201 kts 250°
2026-05-07 18:43 50.96305 4.80174 3872 ft 199 kts 250°
2026-05-07 18:43 50.95830 4.78113 3607 ft 198 kts 250°
2026-05-07 18:43 50.95361 4.76073 3340 ft 195 kts 250°
2026-05-07 18:44 50.94900 4.74069 3064 ft 192 kts 250°
2026-05-07 18:44 50.94448 4.72105 2811 ft 189 kts 250°
2026-05-07 18:44 50.94006 4.70184 2586 ft 182 kts 250°
2026-05-07 18:44 50.93579 4.68327 2311 ft 175 kts 250°
2026-05-07 18:45 50.93174 4.66569 2096 ft 167 kts 250°
2026-05-07 18:45 50.92775 4.64835 1869 ft 171 kts 250°
2026-05-07 18:45 50.92376 4.63102 1620 ft 162 kts 250°
2026-05-07 18:45 50.92004 4.61487 1420 ft 151 kts 250°
2026-05-07 18:46 50.91643 4.59919 1225 ft 151 kts 250°
2026-05-07 18:46 50.91283 4.58355 1016 ft 150 kts 250°
2026-05-07 18:46 50.90924 4.56796 795 ft 150 kts 250°
2026-05-07 18:46 50.90567 4.55249 594 ft 149 kts 250°
2026-05-07 18:47 50.90215 4.53727 382 ft 148 kts 250°
2026-05-07 18:47 50.89870 4.52227 215 ft 147 kts 250°
2026-05-07 18:47 50.89540 4.50796 180 ft 124 kts 250°
2026-05-07 18:47 50.89296 4.49738 182 ft 80 kts 250°
2026-05-07 18:48 50.89172 4.49195 181 ft 26 kts 250°
2026-05-07 18:48 50.89164 4.49067 181 ft 12 kts 309°
2026-05-07 18:48 50.89243 4.49058 177 ft 9 kts 14°
2026-05-07 18:48 50.89327 4.49091 172 ft 15 kts 14°
2026-05-07 18:49 50.89434 4.49133 168 ft 17 kts 14°
2026-05-07 18:49 50.89556 4.49186 162 ft 20 kts 18°
2026-05-07 18:49 50.89693 4.49283 154 ft 23 kts 15°
2026-05-07 18:49 50.89864 4.49350 144 ft 27 kts 14°
2026-05-07 18:50 50.90058 4.49430 132 ft 30 kts 15°
2026-05-07 18:50 50.90257 4.49513 125 ft 29 kts 14°
2026-05-07 18:50 50.90345 4.49536 127 ft 11 kts 352°
2026-05-07 18:50 50.90380 4.49447 125 ft 11 kts 244°
2026-05-07 18:51 50.90333 4.49346 126 ft 11 kts 243°
2026-05-07 18:51 50.90300 4.49231 130 ft 11 kts 247°
2026-05-07 18:51 50.90266 4.49118 131 ft 11 kts 231°
2026-05-07 18:51 50.90210 4.49113 128 ft 4 kts 151°
2026-05-07 18:52 50.90200 4.49122 130 ft 0 kts 153°
2026-05-07 18:52 50.90198 4.49123 130 ft 0 kts 153°